Weather History for KLKU - February, 2014

Change the Weather History Date:

Sunday, February 9, 2014

  Actual Average (KCHO) Record (KCHO)
Temperature  
Mean Temperature 34 °F 37 °F  
Max Temperature 37 °F 47 °F - ()
Min Temperature 30 °F 27 °F - ()
Degree Days  
Heating Degree Days 32 28  
Month to date heating degree days 256  
Since 1 July heating degree days 2916  
Cooling Degree Days 0 0  
Month to date cooling degree days 0  
Year to date cooling degree days 0  
Moisture  
Dew Point 25 °F    
Average Humidity 71    
Maximum Humidity 86    
Minimum Humidity 56    
Precipitation  
Precipitation 0.00 in 0.10 in - ()
Month to date precipitation 0.72  
Year to date precipitation 3.49  
Sea Level Pressure  
Sea Level Pressure 30.07 in    
Wind  
Wind Speed 1 mph (SSE)    
Max Wind Speed 8 mph    
Max Gust Speed -    
Visibility 10 miles    
Events      
T = Trace of Precipitation, MM = Missing Value Source: NWS Daily Summary

Daily Weather History Graph

Daily Weather History Graph

Search for Another Location

Airport or City:

Trip Planner

Search our weather history database for the weather conditions in past years. The results will help you decide how hot, cold, wet, or windy it might be!

Date:

Astronomy

Feb. 09, 2014 Rise Set
Actual Time 7:08 AM EST 5:44 PM EST
Civil Twilight 6:41 AM EST 6:11 PM EST
Nautical Twilight 6:10 AM EST 6:42 PM EST
Astronomical Twilight 5:39 AM EST 7:13 PM EST
Moon 1:24 PM EST (2/9) 3:10 AM EST (2/9)
Length of Visible Light 11h 29m
Length of Day
10h 35m
Waxing Gibbous, 77% of the Moon is Illuminated
Feb 9
Waxing Gibbous
Feb 14
Full
Feb 22
Last Quarter
Mar 1
New
Mar 8
First Quarter

Hourly Weather History & Observations

Time (EST) Temp. Windchill Dew Point Humidity Pressure Visibility Wind Dir Wind Speed Gust Speed Precip Events Conditions
12:15 AM 30.2 °F - 23.0 °F 75% 30.16 in 10.0 mi Calm Calm - N/A   Overcast
12:35 AM 30.2 °F - 23.0 °F 75% 30.16 in 10.0 mi Calm Calm - N/A   Overcast
12:55 AM 30.2 °F - 23.0 °F 75% 30.17 in 10.0 mi Calm Calm - N/A   Overcast
1:15 AM 30.2 °F - 23.0 °F 75% 30.17 in 10.0 mi Calm Calm - N/A   Overcast
1:35 AM 30.2 °F - 23.0 °F 75% 30.16 in 10.0 mi Calm Calm - N/A   Overcast
1:55 AM 30.2 °F - 24.8 °F 80% 30.16 in 10.0 mi Calm Calm - N/A   Overcast
2:15 AM 30.2 °F - 23.0 °F 75% 30.16 in 10.0 mi Calm Calm - N/A   Overcast
2:35 AM 30.2 °F - 23.0 °F 75% 30.15 in 10.0 mi Calm Calm - N/A   Overcast
2:55 AM 30.2 °F - 23.0 °F 75% 30.15 in 10.0 mi Calm Calm - N/A   Overcast
3:15 AM 30.2 °F - 23.0 °F 75% 30.16 in 10.0 mi Calm Calm - N/A   Overcast
3:35 AM 30.2 °F - 23.0 °F 75% 30.15 in 10.0 mi Calm Calm - N/A   Overcast
3:55 AM 30.2 °F - 23.0 °F 75% 30.15 in 10.0 mi Calm Calm - N/A   Overcast
4:15 AM 30.2 °F - 23.0 °F 75% 30.14 in 10.0 mi Calm Calm - N/A   Overcast
4:35 AM 30.2 °F 26.7 °F 23.0 °F 75% 30.13 in 10.0 mi ENE 3.5 mph - N/A   Overcast
4:55 AM 30.2 °F - 23.0 °F 75% 30.13 in 10.0 mi Calm Calm - N/A   Overcast
5:15 AM 30.2 °F 26.7 °F 23.0 °F 75% 30.13 in 10.0 mi NE 3.5 mph - N/A   Overcast
5:35 AM 30.2 °F - 23.0 °F 75% 30.13 in 10.0 mi Calm Calm - N/A   Overcast
5:55 AM 30.2 °F 26.7 °F 24.8 °F 80% 30.13 in 10.0 mi NE 3.5 mph - N/A   Overcast
6:15 AM 30.2 °F - 24.8 °F 80% 30.14 in 10.0 mi Calm Calm - N/A   Overcast
6:35 AM 30.2 °F - 24.8 °F 80% 30.14 in 10.0 mi Calm Calm - N/A   Overcast
6:55 AM 30.2 °F - 24.8 °F 80% 30.15 in 10.0 mi Calm Calm - N/A   Overcast
7:15 AM 30.2 °F - 24.8 °F 80% 30.15 in 10.0 mi Calm Calm - N/A   Overcast
7:35 AM 30.2 °F - 24.8 °F 80% 30.17 in 10.0 mi Calm Calm - N/A   Overcast
7:55 AM 30.2 °F - 24.8 °F 80% 30.17 in 10.0 mi Calm Calm - N/A   Overcast
8:15 AM 30.2 °F 26.7 °F 21.2 °F 69% 30.16 in 10.0 mi ESE 3.5 mph - N/A   Overcast
8:35 AM 30.2 °F 26.7 °F 21.2 °F 69% 30.16 in 10.0 mi SSE 3.5 mph - N/A   Overcast
8:55 AM 30.2 °F 26.7 °F 21.2 °F 69% 30.16 in 10.0 mi East 3.5 mph - N/A   Overcast
9:15 AM 32.0 °F 26.4 °F 21.2 °F 64% 30.15 in 10.0 mi ESE 5.8 mph - N/A   Overcast
9:35 AM 33.8 °F 29.6 °F 21.2 °F 60% 30.15 in 10.0 mi SE 4.6 mph - N/A   Overcast
9:55 AM 33.8 °F 27.7 °F 21.2 °F 60% 30.13 in 10.0 mi SE 6.9 mph - N/A   Overcast
10:15 AM 33.8 °F 30.8 °F 21.2 °F 60% 30.14 in 10.0 mi South 3.5 mph - N/A   Overcast
10:35 AM 33.8 °F 27.7 °F 21.2 °F 60% 30.12 in 10.0 mi SSE 6.9 mph - N/A   Overcast
10:55 AM 35.6 °F 30.7 °F 21.2 °F 56% 30.11 in 10.0 mi South 5.8 mph - N/A   Overcast
11:15 AM 35.6 °F 30.7 °F 21.2 °F 56% 30.11 in 10.0 mi South 5.8 mph - N/A   Overcast
11:35 AM 35.6 °F 29.9 °F 23.0 °F 60% 30.08 in 10.0 mi SSE 6.9 mph - N/A   Overcast
11:55 AM 35.6 °F 29.9 °F 24.8 °F 65% 30.07 in 10.0 mi South 6.9 mph - N/A   Overcast
12:15 PM 35.6 °F 32.8 °F 24.8 °F 65% 30.06 in 10.0 mi SSE 3.5 mph - N/A   Overcast
12:35 PM 35.6 °F 31.7 °F 24.8 °F 65% 30.05 in 10.0 mi SSW 4.6 mph - N/A   Overcast
12:55 PM 35.6 °F 32.8 °F 24.8 °F 65% 30.05 in 10.0 mi South 3.5 mph - N/A   Overcast
1:15 PM 35.6 °F 32.8 °F 24.8 °F 65% 30.05 in 10.0 mi South 3.5 mph - N/A   Overcast
1:35 PM 35.6 °F - 24.8 °F 65% 30.03 in 10.0 mi Calm Calm - N/A   Overcast
1:55 PM 35.6 °F - 24.8 °F 65% 30.01 in 10.0 mi Calm Calm - N/A   Overcast
2:15 PM 37.4 °F 34.9 °F 24.8 °F 60% 30.00 in 10.0 mi South 3.5 mph - N/A   Overcast
2:35 PM 37.4 °F 33.8 °F 24.8 °F 60% 30.00 in 10.0 mi South 4.6 mph - N/A   Overcast
2:55 PM 37.4 °F 32.8 °F 24.8 °F 60% 29.99 in 10.0 mi South 5.8 mph - N/A   Overcast
3:15 PM 37.4 °F 31.4 °F 26.6 °F 65% 29.98 in 10.0 mi SSE 8.1 mph - N/A   Overcast
3:35 PM 37.4 °F 32.1 °F 26.6 °F 65% 29.98 in 10.0 mi South 6.9 mph - N/A   Overcast
3:55 PM 37.4 °F - 26.6 °F 65% 29.98 in 5.0 mi Calm Calm - N/A   Overcast
4:15 PM 37.4 °F 33.8 °F 26.6 °F 65% 29.97 in 10.0 mi South 4.6 mph - N/A   Overcast
4:35 PM 37.4 °F - 26.6 °F 65% 29.97 in 10.0 mi Calm Calm - N/A   Overcast
4:55 PM 37.4 °F - 26.6 °F 65% 29.97 in 10.0 mi Calm Calm - N/A   Overcast
5:15 PM 37.4 °F - 26.6 °F 65% 29.97 in 10.0 mi Calm Calm - N/A   Overcast
5:35 PM 37.4 °F - 26.6 °F 65% 29.98 in 10.0 mi Calm Calm - N/A   Overcast
5:55 PM 37.4 °F - 26.6 °F 65% 29.97 in 10.0 mi Calm Calm - N/A   Overcast
6:15 PM 37.4 °F - 26.6 °F 65% 29.97 in 10.0 mi Calm Calm - N/A   Overcast
6:35 PM 37.4 °F - 26.6 °F 65% 29.96 in 10.0 mi Calm Calm - N/A   Overcast
6:55 PM 37.4 °F - 28.4 °F 70% 29.96 in 10.0 mi Calm Calm - N/A   Overcast
7:15 PM 37.4 °F - 28.4 °F 70% 29.97 in 10.0 mi Calm Calm - N/A   Overcast
7:35 PM 35.6 °F - 28.4 °F 75% 29.98 in 10.0 mi Calm Calm - N/A   Overcast
7:55 PM 35.6 °F - 28.4 °F 75% 29.98 in 10.0 mi Calm Calm - N/A   Overcast
8:15 PM 35.6 °F - 28.4 °F 75% 29.99 in 10.0 mi Calm Calm - N/A   Overcast
8:35 PM 35.6 °F 32.8 °F 28.4 °F 75% 30.01 in 10.0 mi WNW 3.5 mph - N/A   Overcast
8:55 PM 35.6 °F - 28.4 °F 75% 30.01 in 10.0 mi Calm Calm - N/A   Overcast
9:15 PM 37.4 °F 34.9 °F 28.4 °F 70% 30.01 in 10.0 mi SW 3.5 mph - N/A   Mostly Cloudy
9:35 PM 35.6 °F - 28.4 °F 75% 30.02 in 10.0 mi Calm Calm - N/A   Scattered Clouds
9:55 PM 35.6 °F 30.7 °F 28.4 °F 75% 30.01 in 10.0 mi West 5.8 mph - N/A   Scattered Clouds
10:15 PM 35.6 °F 32.8 °F 28.4 °F 75% 30.01 in 10.0 mi NNW 3.5 mph - N/A   Clear
10:35 PM 30.2 °F - 26.6 °F 86% 30.01 in 7.0 mi Calm Calm - N/A   Clear
10:55 PM 35.6 °F 30.7 °F 28.4 °F 75% 30.02 in 10.0 mi North 5.8 mph - N/A   Clear
11:15 PM 33.8 °F - 28.4 °F 81% 30.02 in 10.0 mi Calm Calm - N/A   Scattered Clouds
11:35 PM 30.2 °F 26.7 °F 26.6 °F 86% 30.02 in 7.0 mi ENE 3.5 mph - N/A   Scattered Clouds
11:55 PM 33.8 °F - 28.4 °F 81% 30.02 in 10.0 mi Calm Calm - N/A   Scattered Clouds